TimeEST,TemperatureF,Dew PointF,Humidity,Sea Level PressureIn,VisibilityMPH,Wind Direction,Wind SpeedMPH,Gust SpeedMPH,PrecipitationIn,Events,Conditions,WindDirDegrees,DateUTC
12:54 AM,35.1,18.0,50,29.69,10.0,WNW,9.2,24.2,N/A,,Clear,290,2013-02-20 05:54:00
1:54 AM,33.1,18.0,54,29.70,10.0,WNW,9.2,18.4,N/A,,Clear,290,2013-02-20 06:54:00
2:54 AM,30.9,18.0,59,29.71,10.0,West,4.6,-,N/A,,Clear,270,2013-02-20 07:54:00
3:54 AM,30.9,18.0,59,29.72,10.0,West,9.2,-,N/A,,Clear,280,2013-02-20 08:54:00
4:54 AM,30.9,19.0,61,29.73,10.0,WNW,16.1,23.0,N/A,,Overcast,300,2013-02-20 09:54:00
5:54 AM,30.0,17.1,59,29.76,10.0,WNW,5.8,-,N/A,,Overcast,300,2013-02-20 10:54:00
6:54 AM,28.9,15.1,56,29.79,10.0,NW,9.2,-,N/A,,Overcast,310,2013-02-20 11:54:00
7:54 AM,27.0,17.1,66,29.81,10.0,West,10.4,-,N/A,,Overcast,280,2013-02-20 12:54:00
8:54 AM,28.0,10.9,49,29.82,10.0,WNW,16.1,28.8,N/A,,Scattered Clouds,290,2013-02-20 13:54:00
9:54 AM,28.0,10.0,47,29.83,10.0,West,20.7,28.8,N/A,,Mostly Cloudy,270,2013-02-20 14:54:00
10:54 AM,28.9,10.0,45,29.83,10.0,WNW,17.3,24.2,N/A,,Overcast,290,2013-02-20 15:54:00
11:54 AM,28.9,9.0,43,29.81,10.0,WNW,20.7,28.8,N/A,,Overcast,290,2013-02-20 16:54:00
12:54 PM,30.0,12.0,47,29.81,10.0,WNW,13.8,-,N/A,,Mostly Cloudy,290,2013-02-20 17:54:00
1:54 PM,28.0,17.1,63,29.81,4.0,WNW,6.9,26.5,0.00,Snow,Light Snow,290,2013-02-20 18:54:00
2:54 PM,30.0,12.0,47,29.82,10.0,West,17.3,25.3,0.00,,Mostly Cloudy,280,2013-02-20 19:54:00
3:54 PM,28.0,12.0,51,29.84,10.0,NW,13.8,24.2,N/A,,Overcast,320,2013-02-20 20:54:00
4:54 PM,28.0,10.9,49,29.86,10.0,WNW,18.4,33.4,N/A,,Overcast,290,2013-02-20 21:54:00
5:54 PM,27.0,9.0,47,29.89,10.0,WNW,15.0,23.0,N/A,,Overcast,290,2013-02-20 22:54:00
6:54 PM,25.0,8.1,49,29.92,10.0,West,13.8,24.2,N/A,,Scattered Clouds,280,2013-02-20 23:54:00
7:54 PM,24.1,8.1,51,29.93,10.0,West,5.8,-,N/A,,Partly Cloudy,280,2013-02-21 00:54:00
8:54 PM,24.1,8.1,51,29.94,10.0,WNW,8.1,18.4,N/A,,Clear,300,2013-02-21 01:54:00
9:54 PM,24.1,8.1,51,29.93,10.0,NW,11.5,19.6,N/A,,Clear,310,2013-02-21 02:54:00
11:54 PM,24.1,9.0,53,29.96,10.0,WNW,19.6,27.6,N/A,,Overcast,300,2013-02-21 04:54:00